Tracking 28052 objects as of 22-Sep-2023
HD Live streaming from Space Station
objects crossing your sky now

COSMOS 839 DEB

Track COSMOS 839 DEB now!
10-day predictions


NORAD ID: 10417
Int'l Code: 1976-067L
Perigee: 910.6 km
Apogee: 2,058.4 km
Inclination: 65.6 °
Period: 115.5 minutes
Semi major axis: 7855 km
RCS: 0.0203 m2 (small)
Launch date: July 8, 1976
Source: Commonwealth of Independent States (former USSR) (CIS)
Launch site: PLESETSK MISSILE AND SPACE COMPLEX (PKMTR)

Note: This is SATELLITE DEBRIS
Your satellite tracking list
Your tracking list is empty




NASA's NSSDC Master Catalog

Two Line Element Set (TLE):
1 10417U 76067L   23264.49518951  .00000040  00000-0  25615-3 0  9994
2 10417  65.5811 285.9132 0730571 155.2265 356.7311 12.46940138405272
Source of the keplerian elements: AFSPC